Showing default

METEOR 3M, 27001

Orbit data source: Space-Track

METEOR 3M, 27001 is a Commonwealth of Independent States-origin payload satellite in SSO that was launched on Mon, 10 Dec 2001 UTC via a ZENIT-2 launch vehicle from the Tyuratam Missile And Space Complex (TTMTR). Payload-class satellites include a variety of spacecraft equipped with specific instruments for various scientific and technological missions. These include communications satellites like Starlink; space stations such as the ISS; scientific satellites like the Hubble; Earth observation satellites from companies like Planet Labs, Umbra, and HawkEye 360; GPS; miniature CubeSats for education and research; and military/defense satellites.

Loading next visibility...
Identifier
27001, 2001-056A
Orbit
SSO
Country
Flag of CISCIS
Related business
Manufacturer
VNIIEM
Mission
Civil Weather
Bus & Motor
METEOR-3, Unknown motor
Mass
2,476 kg wet, ~2,300 kg dry
Launch date (UTC)
2001-12-10 (24 years ago)
Launch vehicle
ZENIT-2
Launch site
Tyuratam Missile And Space Complex (TTMTR)
Object type
Payload
Rocket body
Debris
Shape & HBR
Cyl + 2 Pan, 7.0 m
Radar Cross Section
26.744 m², Large (>1 m²)

Expand to show TLE details & history
Last TLE update: 1 day ago

TLE from 1 day ago
0 METEOR 3M
1 27001U 01056A   25260.02632694 -.00000007  00000-0  45490-4 0  9993
2 27001  99.8170  76.5139 0013704 172.5173 298.9414 13.69020865187506
Epoch: 2025-09-17T00:37Z
TLE epoch observation values (Epoch: 2025-09-17T00:37:54.647Z)
Latitude
66.70777°
Longitude
-85.60301°
Altitude
1,009.657 km
Speed
7.355 km/s
True Right ascension
18h 40m 19s
True Declination
66° 35' 13"
Sunlit
Object was in daylight at epoch
Visualization orbit readout
Latitude
Unknown
Longitude
Unknown
Altitude
Unknown
Speed
Unknown
Apparent Right ascension
Unknown
Apparent Declination
Unknown
Sunlit
N/A
Visualization observer readout
Local Sidereal Time
18:32:23
Azimuth
Unknown
Elevation
Unknown
Doppler factor
Unknown
Orbital elements
Apogee altitude
1,010.482 km
Perigee altitude
990.259 km
Semi-major axis
7,378.507 km
Eccentricity
0.00137
Inclination
99.817°
RAAN
76.5139°
Arg. of periapsis
172.5173°
True anomaly
298.80386°
Mean anomaly
298.9414°
Eccentric anomaly
298.87264°
Mean motion
3.42445 °/min
Orbital period
105.13 mins
BSTAR
0.00004549
Loading maneuver chart data...
Computing Atmospheric mass density...
Loading historical data...
Loading historical data...
Loading historical data...
Loading historical data...
Loading historical data...
Loading historical data...
Loading historical data...

Documentation

Showing up to 5 results
|